TimeMDT,TemperatureF,Dew PointF,Humidity,Sea Level PressureIn,VisibilityMPH,Wind Direction,Wind SpeedMPH,Gust SpeedMPH,PrecipitationIn,Events,Conditions,WindDirDegrees,DateUTC
12:53 AM,43.0,27.0,53,30.12,10.0,WNW,11.5,25.3,N/A,,Partly Cloudy,290,2013-11-01 06:53:00
1:53 AM,43.0,27.0,53,30.14,10.0,West,13.8,21.9,N/A,,Partly Cloudy,270,2013-11-01 07:53:00
2:53 AM,42.1,28.0,58,30.16,10.0,West,12.7,-,N/A,,Clear,260,2013-11-01 08:53:00
3:53 AM,39.9,28.0,63,30.17,10.0,WSW,11.5,-,N/A,,Clear,240,2013-11-01 09:53:00
4:53 AM,39.9,28.0,63,30.19,10.0,Variable,4.6,-,N/A,,Clear,0,2013-11-01 10:53:00
5:53 AM,39.0,28.0,65,30.20,10.0,West,8.1,-,N/A,,Clear,260,2013-11-01 11:53:00
6:53 AM,43.0,28.9,58,30.21,10.0,West,16.1,21.9,N/A,,Scattered Clouds,270,2013-11-01 12:53:00
7:53 AM,33.1,26.1,75,30.25,10.0,Calm,Calm,-,N/A,,Scattered Clouds,0,2013-11-01 13:53:00
8:53 AM,34.0,27.0,75,30.27,10.0,Calm,Calm,-,N/A,,Overcast,0,2013-11-01 14:53:00
9:53 AM,39.0,28.9,67,30.27,10.0,Calm,Calm,-,N/A,,Scattered Clouds,0,2013-11-01 15:53:00
10:53 AM,48.9,28.9,46,30.23,10.0,WSW,3.5,-,N/A,,Mostly Cloudy,250,2013-11-01 16:53:00
11:53 AM,48.9,26.1,41,30.23,10.0,West,8.1,-,N/A,,Overcast,270,2013-11-01 17:53:00
12:53 PM,51.1,26.1,38,30.22,10.0,West,17.3,20.7,N/A,,Overcast,260,2013-11-01 18:53:00
1:53 PM,52.0,25.0,35,30.19,10.0,West,11.5,23.0,N/A,,Mostly Cloudy,270,2013-11-01 19:53:00
2:53 PM,52.0,25.0,35,30.17,10.0,West,6.9,-,N/A,,Overcast,270,2013-11-01 20:53:00
3:53 PM,54.0,25.0,33,30.17,10.0,West,13.8,23.0,N/A,,Overcast,260,2013-11-01 21:53:00
4:53 PM,53.1,25.0,34,30.16,10.0,West,11.5,20.7,N/A,,Partly Cloudy,260,2013-11-01 22:53:00
5:53 PM,48.9,26.1,41,30.20,10.0,WNW,3.5,-,N/A,,Partly Cloudy,290,2013-11-01 23:53:00
6:53 PM,45.0,26.1,48,30.21,10.0,West,6.9,-,N/A,,Partly Cloudy,280,2013-11-02 00:53:00
7:53 PM,44.1,27.0,51,30.24,10.0,SSW,5.8,-,N/A,,Clear,210,2013-11-02 01:53:00
8:53 PM,44.1,26.1,49,30.23,10.0,SW,4.6,-,N/A,,Clear,220,2013-11-02 02:53:00
9:53 PM,41.0,27.0,57,30.23,10.0,SSE,6.9,-,N/A,,Mostly Cloudy,150,2013-11-02 03:53:00
10:53 PM,43.0,27.0,53,30.18,10.0,WSW,6.9,-,N/A,,Overcast,240,2013-11-02 04:53:00
11:53 PM,37.9,27.0,65,30.19,10.0,WSW,4.6,-,N/A,,Scattered Clouds,240,2013-11-02 05:53:00